Hourly Data Report for October 25, 2015

All times are specified in Local Standard Time (LST). Add 1 hour to adjust for Daylight Saving Time where and when it is observed.

KAMLOOPS A
BRITISH COLUMBIA

50°42'09.000" N
120°26'55.000" W
345.30 m
1163781
71887
YKA

Download Data

Hourly Data (October 2015)
Hourly Data Report for October 25, 2015
Temp Definition
°C
Dew Point Temp Definition
°C
Rel Hum Definition
%
Wind Dir Definition
10's deg

Wind Spd Definition
km/h
Visibility Definition
km
Stn Press Definition
kPa
Hmdx Definition


Wind Chill Definition


Weather Definition


TIME
00:00 Legend Double Dagger 2.8 0.0 82 10 13 64.4 97.81     LegendNANA
01:00 Legend Double Dagger 2.2 -0.1 85 9 11 64.4 97.81     Mostly Cloudy
02:00 Legend Double Dagger 3.2 0.6 83 10 15 64.4 97.81     LegendNANA
03:00 Legend Double Dagger 2.9 0.0 81 10 15 64.4 97.77     LegendNANA
04:00 Legend Double Dagger 2.3 -0.1 84 10 13 64.4 97.75     Mainly Clear
05:00 Legend Double Dagger 2.9 0.8 86 10 12 64.4 97.76     LegendNANA
06:00 Legend Double Dagger 3.0 1.1 87 11 17 64.4 97.75     LegendNANA
07:00 Legend Double Dagger 3.8 -0.2 75 11 16 64.4 97.72     Cloudy
08:00 Legend Double Dagger 4.0 0.0 75 11 13 64.4 97.70     LegendNANA
09:00 Legend Double Dagger 4.9 -0.3 69 11 17 64.4 97.67     LegendNANA
10:00 Legend Double Dagger 5.7 0.3 68 11 17 64.4 97.61     Mostly Cloudy
11:00 Legend Double Dagger 7.7 0.5 60 12 16 64.4 97.51     LegendNANA
12:00 Legend Double Dagger 9.0 1.5 59 11 14 64.4 97.39     LegendNANA
13:00 Legend Double Dagger 9.8 1.7 57 11 14 64.4 97.29     Mostly Cloudy
14:00 Legend Double Dagger 11.0 0.5 48 11 16 64.4 97.18     LegendNANA
15:00 Legend Double Dagger 11.3 0.1 46 14 13 64.4 97.11     LegendNANA
16:00 Legend Double Dagger 11.0 -0.4 45 11 16 64.4 97.07     Mostly Cloudy
17:00 Legend Double Dagger 10.4 -0.4 47 11 13 64.4 96.99     LegendNANA
18:00 Legend Double Dagger 9.4 -0.5 50 11 12 64.4 96.98     LegendNANA
19:00 Legend Double Dagger 9.5 -0.4 50 13 11 64.4 96.99     Mostly Cloudy
20:00 Legend Double Dagger 9.6 -0.3 50 11 11 64.4 97.01     LegendNANA
21:00 Legend Double Dagger 9.6 -0.6 49 12 14 64.4 96.97     LegendNANA
22:00 Legend Double Dagger 8.8 -0.2 53 13 15 64.4 97.00     Cloudy
23:00 Legend Double Dagger 8.6 1.3 60 12 16 64.4 96.99     LegendNANA

Notes on Data Quality.

Legend

  • E = Estimated
  • M = Missing
  • NA = Not Available
  • ‡ = Partner data that is not subject to review by the National Climate Archives
Date modified: